Regional Weather Roundup
Issued by NWS

Home | Current Version | Previous Version | Graphics & Text | Print | Product List | Glossary Off
Versions: 1 2 3 4 5 6 7 8 9 10 11 12 13 14 15 16 17 18 19 20 21 22 23 24 25 26 27 28 29 30 31 32 33 34 35 36 37 38 39 40 41 42 43 44 45 46 47 48 49 50

000
ASUS43 KTOP 221608
RWRKS

WEATHER ROUNDUP FOR KANSAS
NATIONAL WEATHER SERVICE GOODLAND KS
1100 AM CDT MON SEP 22 2014

NOTE:  "FAIR" INDICATES FEW OR NO CLOUDS BELOW 12,000 FEET WITH NO
SIGNIFICANT WEATHER AND/OR OBSTRUCTIONS TO VISIBILITY.

KSZ001>006-013>018-027>032-041>047-221700-
NORTHWEST KANSAS

CITY           SKY/WX    TMP DP  RH WIND       PRES   REMARKS
GOODLAND       PTSUNNY   68  43  40 S25G33    30.27S
HAYS           SUNNY     68  46  45 S15G21    30.32S
HILL CITY      SUNNY     69  45  41 S14G22    30.30F
RUSSELL        MOSUNNY   66  49  54 S13       30.31S
$$

KSZ061>065-074>080-084>089-221700-
SOUTHWEST KANSAS

CITY           SKY/WX    TMP DP  RH WIND       PRES   REMARKS
DODGE CITY     SUNNY     69  42  37 S18       30.33S
ELKHART          N/A     67  47  48 SE17        N/A
GARDEN CITY    SUNNY     68  43  40 S17       30.32S
GREAT BEND     SUNNY     68  48  49 SE15      30.32F
LIBERAL        SUNNY     70  43  37 SE15      30.34S
PRATT          SUNNY     68  43  40 S10       30.34S
$$

KSZ066>073-081>083-090>101-221700-
SOUTHEAST KANSAS

CITY           SKY/WX    TMP DP  RH WIND       PRES   REMARKS
CHANUTE        SUNNY     67  52  58 CALM      30.32F
COFFEYVILLE    SUNNY     68  51  54 E8        30.31F
HUTCHINSON     MOSUNNY   68  48  48 SE9       30.33F
MEDICINE LODGE   N/A     68  47  46 S10       30.32F
NEWTON         SUNNY     66  46  48 S8        30.36S
PARSONS        SUNNY     69  51  52 NE6       30.33S
WICHITA INTL   MOSUNNY   71  45  39 SE9       30.32F
WICHITA JABRA  SUNNY     68  46  45 SE9       30.33S
WICHITA MCCONL SUNNY     69  44  40 SE5       30.33S
WINFIELD       SUNNY     69  51  52 SE9       30.33F
$$

KSZ007>012-019>026-033>040-048>060-102>105-221700-
NORTHEAST KANSAS

CITY           SKY/WX    TMP DP  RH WIND       PRES   REMARKS
CONCORDIA      SUNNY     67  50  54 S12       30.33S
EMPORIA        SUNNY     66  51  58 E8        30.33S
LAWRENCE       SUNNY     65  51  60 E5        30.33F
MANHATTAN      SUNNY     67  52  58 VRB5      30.33S
MARYSVILLE     SUNNY     66  52  59 S5        30.33S
OLATHE IND     SUNNY     66  50  56 E5        30.33F
OLATHE EXE     SUNNY     65  50  58 CALM      30.32S
SALINA         SUNNY     68  51  54 S7        30.34R
TOPEKA BILLARD SUNNY     67  52  58 VRB3      30.33S
TOPEKA FORBES  SUNNY     67  50  54 SE7       30.33R
$$


USA.gov is the U.S. government's official web portal to all federal, state and local government web resources and services.